GW2149 Weather Reports


time (UTC)temp
F
wind
direction
speed
knots
gust
knots
rain 1hr
in
rain 24hr
in
rain mn
in
humidity
%
barometer
mb
20260506161541 60 212 4.3 13.0 0.00 0.00 0.00 83 1010.9
20260506160042 60 199 6.1 13.9 0.00 0.00 0.00 82 1011.1
20260506154547 61 171 6.1 16.5 0.00 0.00 0.00 81 1011.3
20260506153037 61 222 7.0 14.8 0.00 0.00 0.00 81 1011.6
20260506151537 60 192 5.2 13.9 0.00 0.00 0.00 82 1011.5
20260506150045 60 159 4.3 16.5 0.00 0.00 0.00 83 1011.3
20260506144547 60 161 8.7 20.9 0.00 0.00 0.00 82 1011.2
20260506143039 61 221 7.8 17.4 0.00 0.00 0.00 81 1011.6
20260506141537 61 217 6.1 16.5 0.00 0.00 0.00 81 1011.5
20260506140052 61 128 7.8 20.0 0.00 0.00 0.00 82 1011.7
20260506134535 60 206 7.8 15.6 0.00 0.00 0.00 83 1012.0
20260506133046 60 190 8.7 20.0 0.00 0.00 0.00 83 1011.8
20260506131540 59 216 7.8 15.6 0.00 0.00 0.00 84 1011.7
20260506130040 59 167 9.6 20.0 0.00 0.00 0.00 84 1011.8
20260506124534 60 192 6.1 16.5 0.00 0.00 0.00 83 1011.6
20260506123034 60 190 9.6 18.2 0.00 0.00 0.00 83 1012.0
20260506121541 60 197 9.6 18.2 0.00 0.00 0.00 83 1012.2
20260506120042 59 149 7.8 19.1 0.00 0.00 0.00 84 1012.1
20260506114538 59 182 6.1 14.8 0.00 0.00 0.00 85 1012.0
20260506113045 58 192 7.0 15.6 0.00 0.00 0.00 86 1011.9
20260506111534 58 214 6.1 14.8 0.00 0.00 0.00 87 1012.2
20260506110041 57 203 7.8 16.5 0.00 0.00 0.00 88 1012.1
20260506104546 57 192 8.7 16.5 0.00 0.00 0.00 88 1012.0
20260506103041 57 179 7.0 16.5 0.00 0.00 0.00 89 1011.8
20260506101547 57 218 7.8 15.6 0.00 0.00 0.00 89 1011.9
20260506100037 57 203 6.1 14.8 0.00 0.00 0.00 89 1012.0
20260506094536 57 213 7.0 15.6 0.00 0.00 0.00 89 1011.9
20260506093041 57 224 7.8 16.5 0.00 0.00 0.00 89 1011.8
20260506091535 57 145 7.0 19.1 0.00 0.00 0.00 88 1011.9
20260506090038 57 212 7.8 17.4 0.00 0.00 0.00 88 1012.0
20260506084542 57 163 5.2 13.9 0.00 0.00 0.00 88 1012.3
20260506083038 57 180 6.1 15.6 0.00 0.00 0.00 87 1012.2
20260506081536 57 131 6.1 17.4 0.00 0.00 0.00 87 1012.4
20260506073039 57 192 7.0 18.2 0.00 0.00 0.00 86 1012.5
20260506071538 57 162 7.0 15.6 0.00 0.00 0.00 85 1012.6
20260506061538 58 211 7.8 20.9 0.00 0.00 0.00 83 1012.4
20260506044537 59 201 6.1 19.1 0.00 0.00 0.00 81 1012.8
20260506043042 60 174 7.8 21.7 0.00 0.00 0.00 80 1012.8
20260506041540 60 167 7.8 22.6 0.00 0.00 0.00 80 1012.8
20260506040042 59 163 9.6 20.0 0.00 0.00 0.00 80 1013.0
20260506034535 59 225 5.2 13.9 0.00 0.00 0.00 80 1012.7
20260506033042 59 247 9.6 18.2 0.00 0.00 0.00 80 1012.8
20260506031542 59 225 6.1 16.5 0.00 0.00 0.00 79 1012.6
20260506030040 60 191 7.0 17.4 0.00 0.00 0.00 79 1012.8
20260506024536 60 202 7.0 19.1 0.00 0.00 0.00 79 1012.8
20260506023048 60 188 8.7 25.2 0.00 0.00 0.00 78 1012.8
20260506021550 60 218 5.2 18.2 0.00 0.00 0.00 78 1012.9
20260506020040 60 134 8.7 20.0 0.00 0.00 0.00 77 1012.8
20260506014540 61 218 9.6 21.7 0.00 0.00 0.00 75 1012.7
20260506013035 62 209 8.7 20.0 0.00 0.00 0.00 73 1012.4
20260506011542 63 180 9.6 21.7 0.00 0.00 0.00 70 1012.3
20260506010050 63 134 10.4 22.6 0.00 0.00 0.00 70 1012.0
20260506004551 62 222 8.7 20.0 0.00 0.00 0.00 71 1011.8
20260506003038 62 214 7.8 22.6 0.00 0.00 0.00 71 1011.6
20260506001543 63 197 8.7 24.3 0.00 0.00 0.00 71 1011.5
20260506000043 62 176 10.4 21.7 0.00 0.00 0.00 71 1011.4
20260505234600 62 195 8.7 20.9 0.00 0.00 0.00 71 1011.1
20260505233039 62 211 9.6 20.0 0.00 0.00 0.00 71 1011.1
20260505231535 63 204 7.0 22.6 0.00 0.00 0.00 70 1010.7
20260505230036 63 273 9.6 23.5 0.00 0.00 0.00 69 1010.5
20260505224540 63 172 10.4 21.7 0.00 0.00 0.00 68 1010.7
20260505223040 64 206 7.0 22.6 0.00 0.00 0.00 67 1010.5
20260505221539 64 215 7.8 26.1 0.00 0.00 0.00 67 1010.4
20260505220048 65 216 9.6 18.2 0.00 0.00 0.00 66 1010.2
20260505214600 66 184 9.6 20.0 0.00 0.00 0.00 64 1010.2
20260505213051 66 175 8.7 22.6 0.00 0.00 0.00 63 1010.0
20260505211537 67 289 5.2 12.2 0.00 0.00 0.00 63 1009.9
20260505210037 67 207 4.3 13.9 0.00 0.00 0.00 63 1009.8
20260505204542 67 350 7.0 15.6 0.00 0.00 0.00 64 1009.9
20260505203047 67 186 6.1 13.9 0.00 0.00 0.00 65 1010.0
20260505201542 66 180 5.2 12.2 0.00 0.00 0.00 66 1010.1
20260505200048 67 165 7.0 13.9 0.00 0.00 0.00 65 1010.2
20260505194546 68 201 6.1 13.0 0.00 0.00 0.00 65 1010.3
20260505193037 68 180 5.2 11.3 0.00 0.00 0.00 65 1010.6
20260505191537 66 175 5.2 13.9 0.00 0.00 0.00 67 1010.9
20260505190037 66 186 4.3 13.9 0.00 0.00 0.00 68 1011.1
20260505184540 67 155 6.1 13.0 0.00 0.00 0.00 68 1011.2
20260505183039 67 158 6.1 12.2 0.00 0.00 0.00 68 1011.3
20260505181537 67 180 5.2 13.9 0.00 0.00 0.00 68 1011.5
20260505180100 67 195 6.1 11.3 0.00 0.00 0.00 68 1011.6
20260505174556 66 175 4.3 17.4 0.00 0.00 0.00 69 1011.6
20260505173044 66 153 4.3 13.0 0.00 0.00 0.00 71 1011.7
20260505171535 65 222 5.2 14.8 0.00 0.00 0.00 71 1011.9
20260505170034 66 174 5.2 17.4 0.00 0.00 0.00 69 1011.7
20260505164535 66 101 4.3 13.0 0.00 0.00 0.00 69 1011.9
20260505163041 66 137 4.3 13.0 0.00 0.00 0.00 70 1012.1